Location: Azat
(46.0765°N, 1.7600°E)
Time: 12:00:17
(UTC+00:00)

SL-24 R/B - RUBIN 2 - Pass Details

Date: 09 April 2020
Orbit: 569 x 1026 km, 64.6° (Epoch: 05 June)

Event Time Altitude Azimuth Distance (km) Brightness Sun altitude
Rises 19:20:55 0° 209° (SSW) 3,230 7.3 -8.8°
Reaches altitude 10° 19:23:11 10° 208° (SSW) 2,373 6.6 -9.2°
Maximum altitude 19:28:42 77° 123° (ESE) 905 4.2 -10.1°
Drops below altitude 10° 19:35:00 10° 39° (NE) 2,689 6.7 -11.1°
Sets 19:37:42 0° 38° (NE) 3,689 7.4 -11.5°
